Total_Precipitation_Accumulation
0.16 0.24 0.30 0.32 0.27 0.21 0.18 0.21 0.34 0.33 0.39 0.49 0.60 0.66 0.83 0.91 0.87 0.80 0.73 0.70 0.77 0.91 0.92 0.92 0.96 0.97 1.06 1.05 1.21 1.21 1.29 1.40 1.51 1.49 1.50 1.46 1.40 1.34 1.39 1.47 1.43 1.60 1.81 1.91
0.15 0.18 0.23 0.26 0.26 0.18 0.14 0.12 0.16 0.28 0.50 0.54 0.58 0.64 0.78 0.80 0.78 0.78 0.84 0.89 0.91 0.97 1.03 0.93 0.87 0.82 0.75 0.81 0.95 1.06 1.19 1.17 1.25 1.35 1.27 1.24 1.25 1.22 1.26 1.35 1.46 1.62 1.67 1.71
0.25 0.21 0.27 0.32 0.26 0.20 0.14 0.13 0.15 0.32 0.60 0.60 0.63 0.69 0.82 0.88 0.88 0.78 0.79 0.85 0.95 1.00 0.99 0.84 0.79 0.76 0.77 0.79 0.85 0.92 1.03 1.18 1.29 1.36 1.30 1.23 1.28 1.38 1.39 1.52 1.58 1.56 1.49 1.50
0.37 0.44 0.58 0.39 0.26 0.22 0.23 0.21 0.22 0.28 0.39 0.47 0.62 0.65 0.67 0.74 0.86 0.88 0.89 0.97 1.00 0.95 0.89 0.86 0.84 0.86 0.87 0.87 0.93 1.02 1.05 1.16 1.26 1.28 1.27 1.27 1.27 1.35 1.47 1.64 1.69 1.61 1.44 1.43
0.51 0.60 0.52 0.43 0.37 0.35 0.39 0.39 0.36 0.45 0.43 0.50 0.56 0.62 0.78 0.69 0.72 0.74 0.90 0.96 1.00 1.01 1.03 1.03 0.99 1.05 1.08 1.03 1.07 1.17 1.26 1.33 1.31 1.35 1.38 1.41 1.44 1.52 1.60 1.64 1.66 1.70 1.59 1.50
0.67 0.81 0.81 0.67 0.57 0.50 0.52 0.86 0.65 0.61 0.62 0.70 0.75 0.87 1.06 0.86 0.76 0.82 0.91 0.89 0.94 0.94 1.00 1.11 1.14 1.25 1.29 1.30 1.30 1.36 1.46 1.56 1.59 1.68 1.74 1.70 1.81 1.94 1.95 1.94 1.89 1.94 1.81 1.71
0.87 0.99 0.99 0.78 0.66 0.62 1.03 1.24 0.81 0.73 0.77 0.77 0.81 0.94 0.96 0.95 0.95 0.94 0.78 0.75 0.82 0.93 0.93 1.03 1.23 1.43 1.57 1.55 1.46 1.54 1.66 1.79 1.96 2.06 2.23 2.38 2.46 2.35 2.26 2.25 2.25 2.09 1.94 1.90
1.22 1.39 1.31 0.84 0.78 1.12 1.35 1.02 1.03 0.93 0.86 0.85 0.81 0.89 0.96 0.95 0.92 0.82 0.81 0.80 0.85 0.98 0.98 1.03 1.21 1.40 1.57 1.59 1.60 1.78 1.93 2.09 2.22 2.42 2.51 2.60 2.94 2.96 2.94 2.87 2.61 2.36 2.29 2.15
1.35 1.45 1.18 1.01 1.18 1.27 1.23 1.21 1.24 1.28 1.10 0.99 0.92 0.94 0.98 0.91 0.84 0.78 0.79 0.79 0.84 0.99 1.11 1.15 1.25 1.48 1.73 1.78 1.84 1.95 2.08 2.27 2.42 2.50 2.64 2.78 2.91 2.90 2.93 2.85 2.60 2.43 2.40 2.32
1.47 1.57 1.35 1.26 1.27 1.31 1.29 1.24 1.26 1.35 1.46 1.43 1.17 1.01 1.02 1.00 0.91 0.89 0.95 0.90 0.91 1.02 1.19 1.37 1.48 1.65 1.91 1.97 2.08 2.15 2.19 2.30 2.40 2.49 2.61 2.78 2.91 2.83 2.77 2.71 2.63 2.57 2.54 2.49
1.86 1.84 1.67 1.52 1.55 1.67 1.56 1.43 1.46 1.48 1.51 1.57 1.26 1.04 0.99 1.06 1.02 1.01 1.10 1.13 1.11 1.15 1.28 1.50 1.67 1.83 1.91 1.96 2.14 2.32 2.32 2.36 2.46 2.47 2.48 2.59 2.65 2.74 2.68 2.64 2.65 2.65 2.65 2.68
2.11 1.94 2.00 1.82 1.53 1.62 1.75 1.61 1.61 1.57 1.48 1.33 1.23 1.16 1.16 1.14 1.12 1.12 1.24 1.27 1.27 1.26 1.33 1.52 1.71 1.91 2.02 2.14 2.27 2.40 2.42 2.35 2.42 2.47 2.47 2.47 2.45 2.34 2.34 2.30 2.25 2.18 2.25 2.31
1.74 1.64 1.76 1.74 1.64 1.66 1.85 1.74 1.51 1.44 1.43 1.40 1.31 1.18 1.17 1.15 1.10 1.14 1.21 1.23 1.28 1.35 1.38 1.47 1.61 1.84 2.06 2.30 2.49 2.61 2.62 2.58 2.57 2.67 2.73 2.69 2.66 2.55 2.44 2.34 2.17 1.96 1.84 1.82
1.68 1.70 1.78 1.84 1.89 1.81 1.84 1.74 1.50 1.35 1.32 1.37 1.39 1.27 1.21 1.21 1.20 1.27 1.37 1.30 1.23 1.30 1.43 1.48 1.55 1.74 1.96 2.16 2.39 2.56 2.58 2.68 2.68 2.67 2.74 2.75 2.71 2.67 2.57 2.41 2.28 2.05 1.80 1.66
1.81 1.87 1.96 1.96 1.97 1.92 1.88 1.75 1.73 1.52 1.35 1.33 1.39 1.39 1.35 1.33 1.34 1.31 1.32 1.22 1.15 1.20 1.31 1.49 1.62 1.70 1.86 1.94 2.03 2.18 2.31 2.43 2.49 2.47 2.45 2.50 2.56 2.53 2.45 2.36 2.21 2.04 1.78 1.68
1.80 1.90 1.91 1.92 1.97 1.96 1.90 1.83 1.75 1.58 1.40 1.40 1.44 1.36 1.36 1.37 1.34 1.27 1.21 1.23 1.29 1.33 1.37 1.53 1.60 1.70 1.90 2.03 2.15 2.24 2.30 2.38 2.38 2.30 2.18 2.12 2.11 2.14 2.09 2.11 2.09 2.00 1.86 1.70
1.85 1.93 1.93 1.96 1.89 1.87 1.93 1.94 1.80 1.60 1.45 1.42 1.46 1.41 1.30 1.23 1.20 1.18 1.16 1.17 1.21 1.30 1.42 1.56 1.60 1.58 1.78 2.07 2.24 2.25 2.20 2.16 2.16 2.10 1.98 1.89 1.91 1.99 2.05 2.07 2.00 1.89 1.77 1.67
1.78 1.76 1.75 1.85 1.86 1.81 1.79 1.80 1.85 1.73 1.55 1.46 1.39 1.38 1.36 1.31 1.18 1.12 1.10 1.14 1.17 1.16 1.21 1.33 1.43 1.49 1.59 1.79 1.99 2.07 2.07 1.97 1.86 1.80 1.80 1.75 1.71 1.77 1.82 1.80 1.68 1.60 1.51 1.40
1.56 1.53 1.52 1.58 1.68 1.76 1.78 1.73 1.78 1.75 1.60 1.56 1.53 1.51 1.46 1.43 1.28 1.18 1.11 1.14 1.26 1.33 1.24 1.27 1.44 1.42 1.50 1.65 1.81 1.82 1.89 1.92 1.82 1.65 1.63 1.72 1.60 1.56 1.51 1.44 1.37 1.32 1.22 1.16
1.49 1.41 1.44 1.59 1.71 1.86 1.93 1.79 1.65 1.68 1.72 1.65 1.62 1.59 1.51 1.48 1.41 1.36 1.32 1.28 1.40 1.49 1.45 1.41 1.30 1.29 1.42 1.66 1.81 1.72 1.72 1.77 1.74 1.63 1.58 1.55 1.49 1.43 1.29 1.26 1.24 1.22 1.18 1.16
1.60 1.52 1.56 1.62 1.66 1.78 1.88 1.77 1.58 1.58 1.60 1.59 1.58 1.54 1.49 1.50 1.45 1.48 1.54 1.50 1.41 1.40 1.33 1.36 1.26 1.24 1.28 1.49 1.63 1.62 1.60 1.58 1.60 1.56 1.54 1.54 1.49 1.41 1.29 1.28 1.25 1.19 1.11 1.07
1.76 1.67 1.60 1.56 1.49 1.51 1.60 1.64 1.46 1.37 1.38 1.44 1.46 1.41 1.42 1.44 1.48 1.50 1.45 1.48 1.47 1.47 1.30 1.24 1.23 1.25 1.26 1.30 1.33 1.48 1.55 1.47 1.41 1.34 1.33 1.32 1.34 1.36 1.28 1.21 1.12 0.98 0.92 0.91
1.74 1.65 1.50 1.43 1.38 1.35 1.34 1.33 1.29 1.30 1.35 1.41 1.48 1.53 1.56 1.48 1.48 1.64 1.61 1.36 1.31 1.30 1.20 1.18 1.19 1.15 1.09 1.08 1.20 1.33 1.42 1.40 1.36 1.25 1.19 1.16 1.11 1.10 1.08 1.04 0.95 0.87 0.87 0.87
1.46 1.52 1.44 1.29 1.27 1.29 1.34 1.32 1.29 1.28 1.31 1.38 1.44 1.54 1.66 1.70 1.63 1.57 1.56 1.45 1.25 1.09 0.98 1.00 0.96 0.92 0.91 0.89 1.04 1.16 1.28 1.28 1.23 1.12 1.04 1.00 0.92 0.90 0.95 0.95 0.89 0.84 0.82 0.79
1.25 1.23 1.26 1.26 1.24 1.34 1.40 1.34 1.29 1.23 1.28 1.36 1.37 1.48 1.66 1.77 1.79 1.65 1.42 1.23 1.11 0.98 0.88 0.88 0.90 0.89 0.84 0.87 0.99 1.13 1.23 1.22 1.18 1.09 0.97 0.91 0.84 0.82 0.88 0.89 0.83 0.77 0.72 0.68
1.28 1.24 1.29 1.33 1.31 1.38 1.40 1.37 1.39 1.37 1.44 1.54 1.54 1.55 1.58 1.50 1.47 1.41 1.29 1.16 1.04 1.00 0.91 0.90 0.89 0.87 0.87 0.97 1.05 1.11 1.16 1.15 1.14 1.07 0.92 0.85 0.78 0.80 0.86 0.85 0.79 0.75 0.68 0.61
1.33 1.31 1.36 1.43 1.48 1.46 1.42 1.42 1.45 1.50 1.60 1.77 1.93 1.87 1.74 1.62 1.52 1.35 1.20 1.12 1.03 0.98 0.98 0.97 0.87 0.80 0.84 0.97 1.07 1.09 1.07 1.03 0.95 0.89 0.87 0.84 0.79 0.80 0.82 0.79 0.73 0.66 0.58 0.55